GW1859 Weather Reports


time (UTC)temp
F
wind
direction
speed
knots
gust
knots
rain 1hr
in
rain 24hr
in
rain mn
in
humidity
%
barometer
mb
20260506163601 54 115 0.0 0.0 0.00 0.00 0.00 72 1021.0
20260506163057 55 318 2.6 5.2 0.00 0.00 0.00 74 1021.5
20260506162553 54 125 0.0 0.0 0.00 0.00 0.00 74 1021.3
20260506162045 53 110 0.9 1.7 0.00 0.00 0.00 75 1021.1
20260506161543 52 0 0.9 1.7 0.00 0.00 0.00 74 1020.9
20260506161039 52 121 0.0 0.0 0.00 0.00 0.00 75 1021.0
20260506160537 52 117 0.0 0.0 0.00 0.00 0.00 79 1021.3
20260506160034 52 310 3.5 4.3 0.00 0.00 0.00 77 1021.2
20260506155533 52 93 0.0 0.0 0.00 0.00 0.00 78 1021.1
20260506153709 51 123 0.0 0.0 0.00 0.00 0.00 83 1021.3
20260506153207 50 348 3.5 5.2 0.00 0.00 0.00 83 1021.4
20260506152703 50 120 0.0 0.0 0.00 0.00 0.00 87 1021.1
20260506152201 50 112 0.0 0.0 0.00 0.00 0.00 84 1021.2
20260506151700 50 109 0.0 0.0 0.00 0.00 0.00 87 1021.1
20260506151155 49 112 0.0 0.0 0.00 0.00 0.00 87 1021.0
20260506150652 49 90 0.0 0.0 0.00 0.00 0.00 87 1021.0
20260506150150 49 124 0.0 0.0 0.00 0.00 0.00 90 1021.3
20260506145646 48 115 0.0 0.0 0.00 0.00 0.00 87 1021.2
20260506145143 49 119 0.0 0.0 0.00 0.00 0.00 91 1021.0
20260506144641 48 11 0.0 0.9 0.00 0.00 0.00 90 1021.2
20260506144137 48 114 0.0 0.0 0.00 0.00 0.00 91 1021.4
20260506143635 48 25 0.0 0.0 0.00 0.00 0.00 91 1021.0
20260506143133 48 13 0.9 2.6 0.00 0.00 0.00 92 1020.9
20260506142631 48 123 0.0 0.0 0.00 0.00 0.00 92 1020.8
20260506142129 47 111 0.0 0.0 0.00 0.00 0.00 93 1020.5
20260506141626 47 120 0.0 0.0 0.00 0.00 0.00 93 1020.7
20260506141124 47 119 0.0 0.0 0.00 0.00 0.00 93 1021.1
20260506140622 47 93 0.0 0.9 0.00 0.00 0.00 91 1021.2
20260506140119 47 347 0.9 1.7 0.00 0.00 0.00 93 1020.9
20260506135616 47 119 0.0 0.0 0.00 0.00 0.00 93 1020.9
20260506135112 47 91 0.0 0.0 0.00 0.00 0.00 93 1020.8
20260506134609 47 125 0.0 0.0 0.00 0.00 0.00 93 1020.8
20260506134104 47 126 0.0 0.0 0.00 0.00 0.00 93 1021.0
20260506133602 47 110 0.9 0.9 0.00 0.00 0.00 94 1020.6
20260506133059 46 131 0.0 0.0 0.00 0.00 0.00 94 1020.4
20260506132556 46 131 0.0 0.0 0.00 0.00 0.00 94 1020.8
20260506132053 46 133 0.0 0.0 0.00 0.00 0.00 95 1020.5
20260506131550 46 133 0.0 0.0 0.00 0.00 0.00 95 1020.8
20260506131046 45 133 0.0 0.0 0.00 0.00 0.00 95 1020.6
20260506130543 45 133 0.0 0.0 0.00 0.00 0.00 95 1020.6
20260506130041 45 131 0.0 0.0 0.00 0.00 0.00 95 1020.7
20260506125539 45 131 0.0 0.0 0.00 0.00 0.00 95 1020.4
20260506125036 45 131 0.0 0.0 0.00 0.00 0.00 95 1020.5
20260506124534 45 131 0.0 0.0 0.00 0.00 0.00 95 1020.3
20260506124032 44 130 0.0 0.0 0.00 0.00 0.00 95 1019.9
20260506123529 44 130 0.0 0.0 0.00 0.00 0.00 95 1019.6
20260506123027 44 130 0.0 0.0 0.00 0.00 0.00 95 1019.8
20260506122523 44 131 0.0 0.0 0.00 0.00 0.00 95 1020.1
20260506122022 44 131 0.0 0.0 0.00 0.00 0.00 95 1019.9
20260506121519 44 152 0.0 0.0 0.00 0.00 0.00 95 1019.8
20260506121015 44 293 0.0 0.0 0.00 0.00 0.00 95 1019.9
20260506120514 43 123 0.0 0.0 0.00 0.00 0.00 95 1019.7
20260506120010 43 121 0.0 0.0 0.00 0.00 0.00 95 1019.8
20260506115508 43 120 0.0 0.0 0.00 0.00 0.00 95 1019.6
20260506115007 43 121 0.0 0.0 0.00 0.00 0.00 95 1019.6
20260506114503 43 121 0.0 0.0 0.00 0.00 0.00 95 1019.3
20260506114002 43 121 0.0 0.0 0.00 0.00 0.00 95 1019.5
20260506113459 43 122 0.0 0.0 0.00 0.00 0.00 95 1019.2
20260506112956 43 122 0.0 0.0 0.00 0.00 0.00 95 1018.7
20260506112453 43 122 0.0 0.0 0.00 0.00 0.00 95 1018.6
20260506111950 43 122 0.0 0.0 0.00 0.00 0.00 95 1018.6
20260506111448 43 122 0.0 0.0 0.00 0.00 0.00 95 1018.5
20260506110945 43 122 0.0 0.0 0.00 0.00 0.00 95 1018.3
20260506110443 43 124 0.0 0.0 0.00 0.00 0.00 95 1018.1
20260506105939 43 124 0.0 0.0 0.00 0.00 0.00 95 1018.3
20260506105436 43 124 0.0 0.0 0.00 0.00 0.00 95 1018.5
20260506104933 43 124 0.0 0.0 0.00 0.00 0.00 95 1018.3
20260506104431 43 122 0.0 0.0 0.00 0.00 0.00 95 1018.2
20260506103929 43 121 0.0 0.0 0.00 0.00 0.00 95 1018.3
20260506103426 43 123 0.0 0.0 0.00 0.00 0.00 95 1018.4
20260506102923 43 121 0.0 0.0 0.00 0.00 0.00 95 1018.2
20260506102421 42 121 0.0 0.0 0.00 0.00 0.00 95 1017.8
20260506101918 42 121 0.0 0.0 0.00 0.00 0.00 95 1017.9
20260506101414 43 121 0.0 0.0 0.00 0.00 0.00 95 1017.7
20260506100912 43 121 0.0 0.0 0.00 0.00 0.00 95 1018.0
20260506100410 43 120 0.0 0.0 0.00 0.00 0.00 95 1018.1
20260506095908 43 120 0.0 0.0 0.00 0.00 0.00 94 1018.1
20260506095406 43 119 0.0 0.0 0.00 0.00 0.00 94 1018.0
20260506094902 43 115 0.0 0.0 0.00 0.00 0.00 94 1017.8
20260506094401 43 120 0.0 0.0 0.00 0.00 0.00 94 1018.0
20260506093858 43 117 0.0 0.0 0.00 0.00 0.00 94 1018.3
20260506093355 43 122 0.0 0.0 0.00 0.00 0.00 94 1018.1
20260506092853 43 123 0.0 0.0 0.00 0.00 0.00 94 1017.7
20260506092351 43 123 0.0 0.0 0.00 0.00 0.00 94 1017.8
20260506091847 44 120 0.0 0.0 0.00 0.00 0.00 94 1017.9
20260506091346 44 115 0.0 0.0 0.00 0.00 0.00 94 1018.2
20260506090842 44 118 0.0 0.0 0.00 0.00 0.00 94 1017.9
20260506090340 44 117 0.0 0.0 0.00 0.00 0.00 94 1018.2
20260506085837 44 121 0.0 0.0 0.00 0.00 0.00 94 1018.3
20260506085332 44 102 0.0 0.0 0.00 0.00 0.00 94 1018.4
20260506084829 44 113 0.0 0.0 0.00 0.00 0.00 93 1018.7
20260506084326 44 106 0.0 0.0 0.00 0.00 0.00 93 1018.7
20260506083822 44 120 0.0 0.0 0.00 0.00 0.00 93 1018.6
20260506083320 44 83 0.0 0.0 0.00 0.00 0.00 93 1018.8
20260506082818 44 89 0.0 0.9 0.00 0.00 0.00 93 1018.7
20260506082314 44 123 0.0 0.0 0.00 0.00 0.00 93 1018.4
20260506081810 44 111 0.0 0.0 0.00 0.00 0.00 93 1018.8
20260506081308 44 123 0.0 0.0 0.00 0.00 0.00 93 1018.8
20260506080806 44 119 0.0 0.0 0.00 0.00 0.00 93 1018.2
20260506080302 44 123 0.0 0.0 0.00 0.00 0.00 93 1018.1
20260506073246 44 115 0.0 0.0 0.00 0.00 0.00 93 1017.7
20260506072743 44 103 0.9 0.9 0.00 0.00 0.00 93 1017.3
20260506072241 44 135 0.0 0.9 0.00 0.00 0.00 93 1016.7
20260506071738 44 116 0.0 0.9 0.00 0.00 0.00 93 1016.8
20260506071236 44 122 0.9 0.9 0.00 0.00 0.00 93 1016.8
20260506070733 44 110 0.9 0.9 0.00 0.00 0.00 92 1016.7
20260506070230 44 118 0.0 0.0 0.00 0.00 0.00 92 1016.4
20260506062207 45 116 0.0 0.0 0.00 0.00 0.00 90 1017.4
20260506061702 45 120 0.0 0.9 0.00 0.00 0.00 90 1017.5
20260506061200 46 86 2.6 2.6 0.00 0.00 0.00 90 1017.1
20260506060659 46 125 0.0 0.0 0.00 0.00 0.00 89 1016.8
20260506060155 46 89 0.9 1.7 0.00 0.00 0.00 89 1016.2
20260506051127 50 112 0.0 0.9 0.00 0.00 0.00 73 1015.7
20260506050625 50 119 0.9 1.7 0.00 0.00 0.00 72 1015.4
20260506050122 50 119 0.0 0.0 0.00 0.00 0.00 72 1016.2
20260506045115 50 115 0.0 0.0 0.00 0.00 0.00 75 1016.1
20260506044613 50 133 0.9 1.7 0.00 0.00 0.00 75 1016.0
20260506044110 50 123 0.0 0.0 0.00 0.00 0.00 78 1016.0
20260506043607 50 113 0.0 0.0 0.00 0.00 0.00 79 1016.1
20260506043105 50 117 0.0 0.0 0.00 0.00 0.00 80 1016.0
20260506042604 50 90 0.0 0.0 0.00 0.00 0.00 80 1015.8
20260506042102 50 113 0.0 0.0 0.00 0.00 0.00 81 1015.7
20260506041600 50 122 0.0 0.0 0.00 0.00 0.00 81 1015.9
20260506041056 50 115 0.0 0.0 0.00 0.00 0.00 81 1015.9
20260506040555 50 117 0.0 0.0 0.00 0.00 0.00 81 1016.1
20260506040050 50 114 0.0 0.0 0.00 0.00 0.00 81 1015.9
20260506035547 49 114 0.0 0.0 0.00 0.00 0.00 81 1015.9
20260506035044 49 123 0.0 0.0 0.00 0.00 0.00 82 1016.1
20260506034541 49 117 0.0 0.0 0.00 0.00 0.00 81 1015.9
20260506034038 49 122 0.0 0.0 0.00 0.00 0.00 81 1015.9
20260506033536 49 125 0.0 0.0 0.00 0.00 0.00 81 1016.0
20260506033032 49 121 0.0 0.0 0.00 0.00 0.00 81 1015.9
20260506032530 49 122 0.0 0.0 0.00 0.00 0.00 81 1016.1
20260506032026 49 123 0.0 0.0 0.00 0.00 0.00 81 1016.1
20260506031524 49 122 0.0 0.0 0.00 0.00 0.00 80 1016.1
20260506031021 49 94 0.0 0.0 0.00 0.00 0.00 81 1015.8
20260506030519 49 122 0.0 0.0 0.00 0.00 0.00 82 1015.3
20260506030016 49 123 0.0 0.0 0.00 0.00 0.00 81 1015.4
20260506025513 49 130 0.0 0.0 0.00 0.00 0.00 82 1015.4
20260506025009 49 124 0.0 0.0 0.00 0.00 0.00 83 1015.5
20260506024507 49 117 0.0 0.0 0.00 0.00 0.00 83 1015.6
20260506024002 49 112 0.0 0.9 0.00 0.00 0.00 83 1015.4
20260506023458 49 133 0.0 0.9 0.00 0.00 0.00 83 1015.4
20260506022955 49 16 0.9 1.7 0.00 0.00 0.00 83 1015.5
20260506022453 49 114 0.0 0.0 0.00 0.00 0.00 83 1015.7
20260506021951 49 108 0.0 0.9 0.00 0.00 0.00 82 1015.4
20260506021448 49 110 0.0 0.0 0.00 0.00 0.00 82 1015.6
20260506020945 50 80 0.9 1.7 0.00 0.00 0.00 80 1015.4
20260506020443 51 113 0.0 0.0 0.00 0.00 0.00 77 1015.5
20260506015940 51 124 0.0 0.0 0.00 0.00 0.00 73 1015.3
20260506015437 51 121 0.0 0.0 0.00 0.00 0.00 71 1015.2
20260506014934 51 87 0.9 1.7 0.00 0.00 0.00 70 1015.1
20260506014431 51 311 2.6 2.6 0.00 0.00 0.00 69 1015.0
20260506013927 51 107 0.0 0.0 0.00 0.00 0.00 69 1014.7
20260506013426 51 122 0.9 0.9 0.00 0.00 0.00 68 1014.7
20260506012921 51 103 0.0 0.0 0.00 0.00 0.00 68 1014.5
20260506012418 51 132 0.0 0.0 0.00 0.00 0.00 68 1014.7
20260506011915 51 122 0.0 0.0 0.00 0.00 0.00 68 1014.3
20260506011412 51 120 0.0 0.0 0.00 0.00 0.00 68 1014.7
20260506010909 52 120 0.0 0.0 0.00 0.00 0.00 68 1014.3
20260506010408 52 116 0.0 0.0 0.00 0.00 0.00 69 1014.2
20260506005904 52 107 0.0 0.0 0.00 0.00 0.00 68 1014.3
20260506005402 52 104 0.0 0.0 0.00 0.00 0.00 68 1014.3
20260506004856 52 113 0.0 0.9 0.00 0.00 0.00 68 1013.8
20260506004355 52 121 0.0 0.0 0.00 0.00 0.00 71 1014.0
20260506003851 52 124 0.0 0.0 0.00 0.00 0.00 73 1013.6
20260506003347 53 121 0.0 0.0 0.00 0.00 0.00 73 1014.0
20260506002843 53 118 0.0 0.0 0.00 0.00 0.00 73 1013.8
20260506002340 53 118 0.0 0.0 0.00 0.00 0.00 73 1013.7
20260506001836 53 118 0.0 0.0 0.00 0.00 0.00 73 1013.7
20260506001333 53 116 0.0 0.0 0.00 0.00 0.00 72 1013.8
20260506000830 53 110 0.9 1.7 0.00 0.00 0.00 71 1013.5
20260506000329 53 116 0.0 0.0 0.00 0.00 0.00 71 1013.4
20260505235824 53 62 0.9 0.9 0.00 0.00 0.00 71 1013.3
20260505235322 53 123 0.0 0.0 0.00 0.00 0.00 71 1013.4
20260505234818 53 137 0.0 0.9 0.00 0.00 0.00 70 1013.3
20260505234317 53 123 0.0 0.0 0.00 0.00 0.00 70 1013.3
20260505233813 53 124 0.0 0.0 0.00 0.00 0.00 70 1013.3
20260505233311 53 111 0.0 0.9 0.00 0.00 0.00 70 1013.2
20260505232808 53 125 0.0 0.9 0.00 0.00 0.00 70 1013.3
20260505232306 53 116 0.0 0.0 0.00 0.00 0.00 69 1013.5
20260505231802 53 91 0.0 0.0 0.00 0.00 0.00 69 1013.3
20260505231300 53 111 0.0 0.0 0.00 0.00 0.00 69 1013.2
20260505230758 53 113 0.0 0.0 0.00 0.00 0.00 69 1013.1
20260505230255 53 112 0.0 0.0 0.00 0.00 0.00 68 1012.8
20260505225752 53 111 0.0 0.0 0.00 0.00 0.00 68 1012.9
20260505225249 53 39 0.9 1.7 0.00 0.00 0.00 68 1012.8
20260505224743 53 107 0.9 0.9 0.00 0.00 0.00 68 1013.2
20260505224242 53 107 0.0 0.9 0.00 0.00 0.00 67 1013.1
20260505223739 54 90 0.9 1.7 0.00 0.00 0.00 66 1013.1
20260505223235 54 136 0.9 0.9 0.00 0.00 0.00 66 1013.4
20260505222731 54 107 0.0 0.0 0.00 0.00 0.00 67 1013.0
20260505222227 54 127 0.0 0.0 0.00 0.00 0.00 66 1013.1
20260505221725 54 161 0.0 0.9 0.00 0.00 0.00 66 1012.8
20260505221221 55 131 0.0 0.9 0.00 0.00 0.00 65 1013.0
20260505220718 55 122 0.0 0.9 0.00 0.00 0.00 65 1013.1
20260505220216 54 101 0.0 0.0 0.00 0.00 0.00 65 1013.0
20260505215714 55 119 0.0 0.9 0.00 0.00 0.00 64 1013.2
20260505215212 55 102 1.7 1.7 0.00 0.00 0.00 64 1013.6
20260505214709 55 123 0.0 0.0 0.00 0.00 0.00 65 1013.1
20260505214206 55 14 1.7 2.6 0.00 0.00 0.00 64 1013.2
20260505213704 54 120 0.0 0.0 0.00 0.00 0.00 66 1013.5
20260505213201 53 117 0.0 0.0 0.00 0.00 0.00 67 1013.5
20260505212656 54 110 0.9 0.9 0.00 0.00 0.00 66 1013.4
20260505212154 54 108 0.9 0.9 0.00 0.00 0.00 66 1013.5
20260505211651 54 112 0.9 0.9 0.00 0.00 0.00 66 1013.4
20260505211148 54 110 0.0 0.9 0.00 0.00 0.00 66 1013.8
20260505210644 54 144 0.0 0.9 0.00 0.00 0.00 66 1013.6
20260505210141 55 97 0.9 1.7 0.00 0.00 0.00 66 1013.6
20260505205639 55 113 0.0 0.0 0.00 0.00 0.00 66 1013.5
20260505205137 54 114 0.9 0.9 0.00 0.00 0.00 67 1013.7
20260505204633 54 112 0.9 0.9 0.00 0.00 0.00 67 1013.3
20260505204131 54 168 2.6 4.3 0.00 0.00 0.00 67 1013.5
20260505203628 54 130 0.0 0.0 0.00 0.00 0.00 69 1013.5
20260505203125 53 136 0.0 0.9 0.00 0.00 0.00 69 1013.5
20260505202620 54 151 0.9 1.7 0.00 0.00 0.00 70 1013.4
20260505202116 53 85 0.9 1.7 0.00 0.00 0.00 71 1013.7
20260505201613 54 93 1.7 2.6 0.00 0.00 0.00 70 1013.8
20260505201111 54 66 0.9 1.7 0.00 0.00 0.00 70 1013.9
20260505200609 53 113 0.0 0.9 0.00 0.00 0.00 70 1013.7
20260505200106 54 113 0.0 0.9 0.00 0.00 0.00 69 1013.8
20260505195602 54 322 1.7 4.3 0.00 0.00 0.00 69 1013.6
20260505195059 55 128 0.9 0.9 0.00 0.00 0.00 68 1013.5
20260505194556 55 97 0.9 0.9 0.00 0.00 0.00 69 1013.5
20260505194052 55 129 0.0 0.0 0.00 0.00 0.00 69 1013.2
20260505193549 55 125 1.7 1.7 0.00 0.00 0.00 69 1013.3
20260505193046 55 113 0.0 0.9 0.00 0.00 0.00 68 1013.5
20260505192545 54 126 0.0 0.0 0.00 0.00 0.00 68 1013.1
20260505192042 54 347 0.9 1.7 0.00 0.00 0.00 68 1013.5
20260505191540 54 105 0.0 0.9 0.00 0.00 0.00 68 1013.5
20260505191038 54 104 2.6 2.6 0.00 0.00 0.00 66 1013.5
20260505190532 54 108 0.9 1.7 0.00 0.00 0.00 67 1013.2
20260505190028 54 82 0.0 0.9 0.00 0.00 0.00 67 1013.2
20260505185525 53 110 0.9 0.9 0.00 0.00 0.00 67 1013.3
20260505185022 53 111 0.9 1.7 0.00 0.00 0.00 66 1013.2
20260505184519 54 111 0.9 1.7 0.00 0.00 0.00 66 1013.3
20260505184015 54 29 3.5 4.3 0.00 0.00 0.00 66 1013.3
20260505183512 55 358 0.9 1.7 0.00 0.00 0.00 66 1012.9
20260505183010 55 116 0.9 2.6 0.00 0.00 0.00 66 1012.9
20260505182506 55 76 0.9 1.7 0.00 0.00 0.00 64 1012.9
20260505182002 55 118 0.0 0.0 0.00 0.00 0.00 64 1013.1
20260505181459 55 111 0.9 1.7 0.00 0.00 0.00 63 1013.0
20260505180956 55 137 2.6 2.6 0.00 0.00 0.00 63 1012.8
20260505180452 55 114 1.7 1.7 0.00 0.00 0.00 64 1012.7
20260505175949 55 96 2.6 4.3 0.00 0.00 0.00 63 1012.9
20260505175445 54 106 0.9 1.7 0.00 0.00 0.00 66 1012.8
20260505174942 54 301 1.7 2.6 0.00 0.00 0.00 67 1013.2
20260505174434 54 111 0.9 0.9 0.00 0.00 0.00 66 1013.0
20260505173930 54 118 0.0 0.0 0.00 0.00 0.00 66 1013.0
20260505173426 53 100 0.9 1.7 0.00 0.00 0.00 67 1013.0
20260505172923 54 116 0.9 1.7 0.00 0.00 0.00 67 1012.9
20260505172422 54 87 3.5 7.0 0.00 0.00 0.00 64 1012.7
20260505171921 55 113 1.7 1.7 0.00 0.00 0.00 63 1012.9
20260505171418 55 97 4.3 7.0 0.00 0.00 0.00 65 1013.0
20260505170914 55 97 4.3 7.0 0.00 0.00 0.00 65 1013.0
20260505170411 55 97 4.3 7.0 0.00 0.00 0.00 65 1012.9
20260505165906 55 106 0.9 1.7 0.00 0.00 0.00 64 1012.8
20260505165356 54 8 5.2 9.6 0.00 0.00 0.00 63 1012.8
20260505164852 53 125 0.0 0.9 0.00 0.00 0.00 63 1012.8
20260505164349 53 120 0.9 0.9 0.00 0.00 0.00 64 1013.0
20260505163847 54 78 1.7 5.2 0.00 0.00 0.00 63 1012.7